VOI1156 KSAT-MMMY

Flight info

Callsign VOI1156
Flight time 0h 54m
Altitude 36000
Route TJANO2 KAHAN LRD NOTAL NOTA1A
Aircraft A320/M-SDE3FGHIRWY/LB1

Departure

Time 2026-04-25 04:18
Airport San Antonio International Airport (KSAT)

Arrival

Time 2026-04-25 05:12
Airport Monterrey International Airport (MMMY)
Time Latitude Longitude Altitude Speed Heading
2026-04-25 03:52 29.52882 -98.47144 798 ft 0 kts 286°
2026-04-25 04:08 29.52878 -98.47128 802 ft 2 kts 303°
2026-04-25 04:09 29.52865 -98.47116 802 ft 2 kts 16°
2026-04-25 04:09 29.52863 -98.47117 802 ft 0 kts 17°
2026-04-25 04:10 29.52865 -98.47116 802 ft 1 kts 19°
2026-04-25 04:11 29.52890 -98.47085 802 ft 5 kts 46°
2026-04-25 04:11 29.52924 -98.47049 802 ft 8 kts 31°
2026-04-25 04:11 29.52974 -98.47071 802 ft 9 kts 313°
2026-04-25 04:12 29.53026 -98.47136 802 ft 14 kts 311°
2026-04-25 04:12 29.53090 -98.47222 804 ft 14 kts 310°
2026-04-25 04:12 29.53159 -98.47307 815 ft 15 kts 311°
2026-04-25 04:12 29.53243 -98.47416 795 ft 22 kts 313°
2026-04-25 04:13 29.53351 -98.47554 796 ft 24 kts 310°
2026-04-25 04:13 29.53471 -98.47710 795 ft 28 kts 311°
2026-04-25 04:13 29.53601 -98.47877 798 ft 29 kts 311°
2026-04-25 04:13 29.53735 -98.48050 803 ft 29 kts 311°
2026-04-25 04:14 29.53863 -98.48215 805 ft 16 kts 310°
2026-04-25 04:14 29.53941 -98.48314 807 ft 17 kts 312°
2026-04-25 04:14 29.54026 -98.48426 805 ft 20 kts 312°
2026-04-25 04:14 29.54128 -98.48555 805 ft 23 kts 313°
2026-04-25 04:15 29.54189 -98.48609 805 ft 7 kts 350°
2026-04-25 04:15 29.54193 -98.48609 805 ft 0 kts 354°
2026-04-25 04:16 29.54215 -98.48598 805 ft 5 kts 34°
2026-04-25 04:16 29.54250 -98.48568 805 ft 6 kts 40°
2026-04-25 04:16 29.54246 -98.48520 805 ft 7 kts 128°
2026-04-25 04:16 29.54243 -98.48517 805 ft 0 kts 128°
2026-04-25 04:17 29.54223 -98.48488 805 ft 28 kts 129°
2026-04-25 04:17 29.53921 -98.48100 803 ft 99 kts 131°
2026-04-25 04:17 29.53336 -98.47349 795 ft 151 kts 132°
2026-04-25 04:17 29.52556 -98.46384 1145 ft 170 kts 133°
2026-04-25 04:18 29.51763 -98.45360 1805 ft 172 kts 134°
2026-04-25 04:18 29.50976 -98.44315 2531 ft 174 kts 133°
2026-04-25 04:18 29.50187 -98.43245 3185 ft 177 kts 132°
2026-04-25 04:18 29.49388 -98.42141 3703 ft 184 kts 131°
2026-04-25 04:19 29.48514 -98.40975 4024 ft 204 kts 132°
2026-04-25 04:19 29.47518 -98.39685 4272 ft 228 kts 131°
2026-04-25 04:19 29.46403 -98.38248 4656 ft 253 kts 132°
2026-04-25 04:19 29.44936 -98.36995 5107 ft 275 kts 158°
2026-04-25 04:20 29.43029 -98.36694 5837 ft 283 kts 189°
2026-04-25 04:20 29.41179 -98.37456 6629 ft 285 kts 208°
2026-04-25 04:20 29.39394 -98.38475 7486 ft 287 kts 208°
2026-04-25 04:20 29.37588 -98.39478 8357 ft 289 kts 208°
2026-04-25 04:21 29.35765 -98.40479 9216 ft 292 kts 208°
2026-04-25 04:21 29.33923 -98.41486 10043 ft 295 kts 208°
2026-04-25 04:21 29.32016 -98.42532 10424 ft 315 kts 209°
2026-04-25 04:21 29.29968 -98.43658 10625 ft 338 kts 208°
2026-04-25 04:22 29.27796 -98.44847 11063 ft 351 kts 208°
2026-04-25 04:22 29.25571 -98.46061 11685 ft 356 kts 208°
2026-04-25 04:22 29.23320 -98.47286 12357 ft 360 kts 208°
2026-04-25 04:22 29.21049 -98.48525 13043 ft 363 kts 208°
2026-04-25 04:23 29.18761 -98.49780 13721 ft 366 kts 208°
2026-04-25 04:23 29.16451 -98.51049 14348 ft 369 kts 208°
2026-04-25 04:23 29.14127 -98.52325 15004 ft 372 kts 208°
2026-04-25 04:23 29.11786 -98.53609 15640 ft 374 kts 209°
2026-04-25 04:24 29.09435 -98.54896 16269 ft 377 kts 209°
2026-04-25 04:24 29.07056 -98.56198 16910 ft 380 kts 209°
2026-04-25 04:24 29.04664 -98.57504 17565 ft 382 kts 209°
2026-04-25 04:24 29.02251 -98.58819 18197 ft 385 kts 209°
2026-04-25 04:25 28.99823 -98.60142 18753 ft 388 kts 209°
2026-04-25 04:25 28.97378 -98.61476 19321 ft 391 kts 209°
2026-04-25 04:25 28.94911 -98.62820 19876 ft 394 kts 210°
2026-04-25 04:25 28.92428 -98.64175 20433 ft 397 kts 210°
2026-04-25 04:26 28.89923 -98.65542 20974 ft 400 kts 210°
2026-04-25 04:26 28.87403 -98.66916 21494 ft 403 kts 210°
2026-04-25 04:26 28.84895 -98.68280 22008 ft 406 kts 211°
2026-04-25 04:26 28.82306 -98.69685 22493 ft 409 kts 211°
2026-04-25 04:27 28.79761 -98.71068 22993 ft 412 kts 211°
2026-04-25 04:27 28.77167 -98.72482 23460 ft 415 kts 211°
2026-04-25 04:27 28.74555 -98.73905 23873 ft 418 kts 211°
2026-04-25 04:27 28.71924 -98.75333 24324 ft 420 kts 211°
2026-04-25 04:28 28.69276 -98.76767 24743 ft 422 kts 211°
2026-04-25 04:28 28.66620 -98.78202 25135 ft 424 kts 212°
2026-04-25 04:28 28.63943 -98.79647 25501 ft 427 kts 212°
2026-04-25 04:28 28.61253 -98.81101 25902 ft 430 kts 212°
2026-04-25 04:29 28.58546 -98.82566 26344 ft 432 kts 212°
2026-04-25 04:29 28.55828 -98.84039 26767 ft 434 kts 212°
2026-04-25 04:29 28.53096 -98.85520 27189 ft 436 kts 212°
2026-04-25 04:29 28.50350 -98.87007 27605 ft 438 kts 212°
2026-04-25 04:30 28.47593 -98.88498 28033 ft 440 kts 212°
2026-04-25 04:30 28.44814 -98.89998 28435 ft 442 kts 212°
2026-04-25 04:30 28.42028 -98.91501 28828 ft 444 kts 212°
2026-04-25 04:30 28.39233 -98.93002 29351 ft 443 kts 212°
2026-04-25 04:31 28.36454 -98.94492 29934 ft 441 kts 212°
2026-04-25 04:31 28.33689 -98.95977 30431 ft 439 kts 213°
2026-04-25 04:31 28.30930 -98.97461 30942 ft 437 kts 213°
2026-04-25 04:31 28.28192 -98.98934 31463 ft 435 kts 213°
2026-04-25 04:32 28.25465 -99.00401 31993 ft 432 kts 213°
2026-04-25 04:32 28.22748 -99.01860 32541 ft 430 kts 214°
2026-04-25 04:32 28.20084 -99.03289 33081 ft 428 kts 214°
2026-04-25 04:32 28.17403 -99.04728 33634 ft 426 kts 214°
2026-04-25 04:33 28.14731 -99.06161 34143 ft 424 kts 214°
2026-04-25 04:33 28.12076 -99.07583 34625 ft 421 kts 214°
2026-04-25 04:33 28.09432 -99.09000 35076 ft 419 kts 215°
2026-04-25 04:33 28.06802 -99.10409 35451 ft 418 kts 215°
2026-04-25 04:34 28.04174 -99.11818 35751 ft 417 kts 215°
2026-04-25 04:34 27.98920 -99.14636 35851 ft 421 kts 215°
2026-04-25 04:35 27.93614 -99.17475 35856 ft 422 kts 215°
2026-04-25 04:35 27.88304 -99.20311 35840 ft 422 kts 215°
2026-04-25 04:36 27.82982 -99.23137 35838 ft 422 kts 215°
2026-04-25 04:36 27.77664 -99.25957 35821 ft 422 kts 215°
2026-04-25 04:37 27.72349 -99.28783 35805 ft 422 kts 215°
2026-04-25 04:37 27.67040 -99.31616 35816 ft 422 kts 215°
2026-04-25 04:38 27.61723 -99.34442 35823 ft 422 kts 215°
2026-04-25 04:38 27.56404 -99.37254 35826 ft 422 kts 214°
2026-04-25 04:39 27.51094 -99.40063 35858 ft 422 kts 215°
2026-04-25 04:39 27.46113 -99.43272 35858 ft 407 kts 226°
2026-04-25 04:40 27.41598 -99.47186 35811 ft 407 kts 226°
2026-04-25 04:40 27.37128 -99.51037 35812 ft 407 kts 226°
2026-04-25 04:41 27.32622 -99.54915 35802 ft 408 kts 226°
2026-04-25 04:41 27.28118 -99.58790 35804 ft 408 kts 226°
2026-04-25 04:42 27.23619 -99.62665 35809 ft 408 kts 226°
2026-04-25 04:42 27.19869 -99.65884 35810 ft 408 kts 226°
2026-04-25 04:43 27.15365 -99.69752 35805 ft 408 kts 226°
2026-04-25 04:43 27.10851 -99.73628 35508 ft 409 kts 226°
2026-04-25 04:43 27.08584 -99.75571 35258 ft 410 kts 226°
2026-04-25 04:44 27.06315 -99.77512 35017 ft 411 kts 226°
2026-04-25 04:44 27.04036 -99.79459 34783 ft 412 kts 226°
2026-04-25 04:44 27.01752 -99.81414 34548 ft 413 kts 225°
2026-04-25 04:44 26.99464 -99.83370 34300 ft 414 kts 225°
2026-04-25 04:45 26.97169 -99.85331 34069 ft 416 kts 225°
2026-04-25 04:45 26.94859 -99.87304 33811 ft 418 kts 225°
2026-04-25 04:45 26.92539 -99.89286 32939 ft 422 kts 225°
2026-04-25 04:45 26.90195 -99.91290 32054 ft 425 kts 225°
2026-04-25 04:46 26.87830 -99.93312 31095 ft 430 kts 224°
2026-04-25 04:46 26.85441 -99.95352 30211 ft 433 kts 224°
2026-04-25 04:46 26.83028 -99.97413 29078 ft 440 kts 224°
2026-04-25 04:46 26.80613 -99.99467 28549 ft 431 kts 224°
2026-04-25 04:47 26.78236 -100.01478 27915 ft 425 kts 224°
2026-04-25 04:47 26.75891 -100.03460 27273 ft 420 kts 224°
2026-04-25 04:47 26.73570 -100.05423 26634 ft 416 kts 223°
2026-04-25 04:47 26.71277 -100.07367 26009 ft 412 kts 224°
2026-04-25 04:48 26.69003 -100.09294 25387 ft 408 kts 223°
2026-04-25 04:48 26.66751 -100.11204 24777 ft 405 kts 223°
2026-04-25 04:48 26.64508 -100.13108 24155 ft 402 kts 223°
2026-04-25 04:48 26.62287 -100.14992 23551 ft 399 kts 223°
2026-04-25 04:49 26.59983 -100.16703 23170 ft 399 kts 211°
2026-04-25 04:49 26.57327 -100.17541 23064 ft 397 kts 195°
2026-04-25 04:49 26.54576 -100.17721 22979 ft 399 kts 187°
2026-04-25 04:49 26.51777 -100.17633 22887 ft 404 kts 184°
2026-04-25 04:50 26.48968 -100.17513 22782 ft 404 kts 185°
2026-04-25 04:50 26.46163 -100.17494 22669 ft 401 kts 188°
2026-04-25 04:50 26.43454 -100.17604 22409 ft 385 kts 190°
2026-04-25 04:50 26.40833 -100.17814 22147 ft 362 kts 192°
2026-04-25 04:51 26.38401 -100.18069 21894 ft 341 kts 193°
2026-04-25 04:51 26.36118 -100.18334 21645 ft 327 kts 194°
2026-04-25 04:51 26.33869 -100.18597 21386 ft 314 kts 194°
2026-04-25 04:51 26.31733 -100.18838 21144 ft 305 kts 194°
2026-04-25 04:52 26.29642 -100.19065 20895 ft 299 kts 194°
2026-04-25 04:52 26.27615 -100.19279 20654 ft 294 kts 194°
2026-04-25 04:52 26.25568 -100.19488 20412 ft 290 kts 194°
2026-04-25 04:52 26.23583 -100.19689 20177 ft 289 kts 194°
2026-04-25 04:53 26.21557 -100.19896 19926 ft 288 kts 194°
2026-04-25 04:53 26.19596 -100.20096 19696 ft 286 kts 194°
2026-04-25 04:53 26.17617 -100.20297 19453 ft 285 kts 194°
2026-04-25 04:53 26.15644 -100.20495 19219 ft 284 kts 193°
2026-04-25 04:54 26.13679 -100.20688 18994 ft 283 kts 193°
2026-04-25 04:54 26.11723 -100.20880 18767 ft 282 kts 193°
2026-04-25 04:54 26.09775 -100.21071 18538 ft 281 kts 193°
2026-04-25 04:54 26.07830 -100.21261 18313 ft 280 kts 193°
2026-04-25 04:55 26.05893 -100.21449 18086 ft 279 kts 193°
2026-04-25 04:55 26.03993 -100.21828 17468 ft 277 kts 210°
2026-04-25 04:55 26.02381 -100.22920 16739 ft 270 kts 225°
2026-04-25 04:55 26.00892 -100.24219 16105 ft 274 kts 225°
2026-04-25 04:56 25.99382 -100.25532 15411 ft 277 kts 224°
2026-04-25 04:56 25.97819 -100.26815 14766 ft 280 kts 220°
2026-04-25 04:56 25.96178 -100.27965 14223 ft 278 kts 218°
2026-04-25 04:56 25.94525 -100.29074 13681 ft 276 kts 218°
2026-04-25 04:57 25.92879 -100.30162 13070 ft 275 kts 217°
2026-04-25 04:57 25.91205 -100.31189 12471 ft 277 kts 206°
2026-04-25 04:57 25.89270 -100.31372 11845 ft 289 kts 172°
2026-04-25 04:57 25.87493 -100.30336 11402 ft 294 kts 137°
2026-04-25 04:58 25.86316 -100.28491 10865 ft 294 kts 118°
2026-04-25 04:58 25.85480 -100.26425 10329 ft 292 kts 113°
2026-04-25 04:58 25.84716 -100.24350 9828 ft 288 kts 114°
2026-04-25 04:58 25.83917 -100.22362 9605 ft 274 kts 116°
2026-04-25 04:59 25.83076 -100.20494 9474 ft 267 kts 119°
2026-04-25 04:59 25.82200 -100.18716 9337 ft 259 kts 121°
2026-04-25 04:59 25.81337 -100.17012 9110 ft 255 kts 121°
2026-04-25 04:59 25.80472 -100.15307 8857 ft 252 kts 121°
2026-04-25 05:00 25.79600 -100.13592 8601 ft 250 kts 121°
2026-04-25 05:00 25.78748 -100.11924 8357 ft 248 kts 121°
2026-04-25 05:00 25.77912 -100.10290 8124 ft 245 kts 121°
2026-04-25 05:00 25.77071 -100.08650 7876 ft 243 kts 121°
2026-04-25 05:01 25.76238 -100.07025 7651 ft 240 kts 121°
2026-04-25 05:01 25.75402 -100.05434 7395 ft 237 kts 127°
2026-04-25 05:01 25.74226 -100.04201 7146 ft 232 kts 152°
2026-04-25 05:01 25.72725 -100.03675 6898 ft 227 kts 178°
2026-04-25 05:02 25.71186 -100.03930 6633 ft 224 kts 203°
2026-04-25 05:02 25.69915 -100.04905 6356 ft 224 kts 228°
2026-04-25 05:02 25.69151 -100.06398 6049 ft 226 kts 253°
2026-04-25 05:02 25.69040 -100.08135 5761 ft 229 kts 278°
2026-04-25 05:03 25.69631 -100.09770 5454 ft 232 kts 306°
2026-04-25 05:03 25.70829 -100.10955 5161 ft 233 kts 333°
2026-04-25 05:03 25.72367 -100.11411 5018 ft 232 kts
2026-04-25 05:03 25.73962 -100.11155 5016 ft 233 kts 14°
2026-04-25 05:04 25.75567 -100.10824 4937 ft 237 kts
2026-04-25 05:04 25.77180 -100.11117 4681 ft 236 kts 337°
2026-04-25 05:04 25.78564 -100.12076 4531 ft 235 kts 323°
2026-04-25 05:04 25.79884 -100.13147 4443 ft 235 kts 328°
2026-04-25 05:05 25.81330 -100.13987 4363 ft 234 kts 335°
2026-04-25 05:05 25.82734 -100.14895 4253 ft 234 kts 321°
2026-04-25 05:05 25.83980 -100.16066 4224 ft 236 kts 319°
2026-04-25 05:05 25.85223 -100.17208 4122 ft 234 kts 322°
2026-04-25 05:06 25.86504 -100.18321 4082 ft 234 kts 322°
2026-04-25 05:06 25.87776 -100.19445 4078 ft 234 kts 322°
2026-04-25 05:06 25.89057 -100.20557 4193 ft 233 kts 324°
2026-04-25 05:06 25.90203 -100.21803 4101 ft 234 kts 303°
2026-04-25 05:07 25.90776 -100.23494 3994 ft 235 kts 277°
2026-04-25 05:07 25.90592 -100.25255 3961 ft 221 kts 245°
2026-04-25 05:07 25.89751 -100.26582 3958 ft 207 kts 215°
2026-04-25 05:07 25.88554 -100.27205 4123 ft 179 kts 185°
2026-04-25 05:08 25.87402 -100.27024 4092 ft 163 kts 150°
2026-04-25 05:08 25.86623 -100.26179 4047 ft 155 kts 124°
2026-04-25 05:08 25.85964 -100.25232 4027 ft 155 kts 130°
2026-04-25 05:08 25.85274 -100.24308 4011 ft 155 kts 125°
2026-04-25 05:09 25.84665 -100.23322 3937 ft 155 kts 123°
2026-04-25 05:09 25.84065 -100.22340 3676 ft 154 kts 123°
2026-04-25 05:09 25.83487 -100.21350 3358 ft 152 kts 121°
2026-04-25 05:09 25.82935 -100.20377 3132 ft 146 kts 122°
2026-04-25 05:10 25.82410 -100.19448 3119 ft 140 kts 122°
2026-04-25 05:10 25.81893 -100.18532 2914 ft 139 kts 121°
2026-04-25 05:10 25.81383 -100.17629 2707 ft 137 kts 121°
2026-04-25 05:10 25.80888 -100.16729 2511 ft 136 kts 116°
2026-04-25 05:11 25.80560 -100.15744 2282 ft 136 kts 108°
2026-04-25 05:11 25.80149 -100.14795 2044 ft 138 kts 121°
2026-04-25 05:11 25.79632 -100.13898 1849 ft 137 kts 120°
2026-04-25 05:12 25.78641 -100.12110 1412 ft 137 kts 121°
2026-04-25 05:12 25.78150 -100.11228 1280 ft 124 kts 122°
2026-04-25 05:12 25.77782 -100.10564 1269 ft 76 kts 121°
2026-04-25 05:12 25.77582 -100.10202 1266 ft 46 kts 121°
2026-04-25 05:13 25.77416 -100.09903 1259 ft 45 kts 121°
2026-04-25 05:13 25.77344 -100.09774 1262 ft 16 kts 122°
2026-04-25 05:13 25.77283 -100.09690 1260 ft 10 kts 158°
2026-04-25 05:13 25.77215 -100.09724 1256 ft 13 kts 214°
2026-04-25 05:14 25.77150 -100.09781 1261 ft 10 kts 238°
2026-04-25 05:14 25.77166 -100.09847 1261 ft 10 kts 300°
2026-04-25 05:14 25.77219 -100.09943 1265 ft 17 kts 303°
2026-04-25 05:15 25.77351 -100.10181 1268 ft 19 kts 302°
2026-04-25 05:15 25.77421 -100.10312 1270 ft 20 kts 301°
2026-04-25 05:15 25.77496 -100.10449 1272 ft 23 kts 301°
2026-04-25 05:15 25.77580 -100.10599 1278 ft 23 kts 300°
2026-04-25 05:16 25.77671 -100.10765 1274 ft 27 kts 302°
2026-04-25 05:16 25.77777 -100.10958 1272 ft 27 kts 301°
2026-04-25 05:16 25.77828 -100.11051 1273 ft 10 kts 302°
2026-04-25 05:16 25.77831 -100.11118 1276 ft 9 kts 227°
2026-04-25 05:17 25.77765 -100.11155 1274 ft 12 kts 204°
2026-04-25 05:17 25.77759 -100.11221 1274 ft 8 kts 301°
2026-04-25 05:17 25.77766 -100.11234 1274 ft 0 kts 302°